This is the latest recevied weather packets stored in our database for station/object JA0BES-13. If no packets are shown the sender has not sent any weather packets the latest 10 day(s).
| Time | Temp. | Humidity | Pressure | Rain* | Wind** | Luminosity | Snow |
|---|---|---|---|---|---|---|---|
| 1788160548 | 31.11° C | 96% | 1011.4 hPa | 0 mm | - | - | - |
| 1788159947 | 31.67° C | 90% | 1011.3 hPa | 0 mm | - | - | - |
| 1788159347 | 32.22° C | 92% | 1010.7 hPa | 0 mm | - | - | - |
| 1788158746 | 32.22° C | 91% | 1010.4 hPa | 0 mm | - | - | - |
| 1788158146 | 32.22° C | 91% | 1010.4 hPa | 0 mm | - | - | - |
| 1788157546 | 32.78° C | 91% | 1010.2 hPa | 0 mm | - | - | - |
| 1788156946 | 33.33° C | 89% | 1010.1 hPa | 0 mm | - | - | - |
| 1788156352 | 33.89° C | 86% | 1010.3 hPa | 0 mm | - | - | - |
| 1788155745 | 34.44° C | 85% | 1010.2 hPa | 0 mm | - | - | - |
| 1788155144 | 35° C | 84% | 1010.2 hPa | 0 mm | - | - | - |
| 1788154545 | 36.11° C | 82% | 1010.2 hPa | 0 mm | - | - | - |
| 1788153944 | 36.11° C | 81% | 1010 hPa | 0 mm | - | - | - |
| 1788153344 | 35.56° C | 74% | 1009.9 hPa | 0 mm | - | - | - |
| 1788152743 | 35.56° C | 70% | 1010 hPa | 0 mm | - | - | - |
| 1788152143 | 35.56° C | 71% | 1010.1 hPa | 0 mm | - | - | - |
| 1788151542 | 35.56° C | 72% | 1010.2 hPa | 0 mm | - | - | - |
| 1788150942 | 35.56° C | 71% | 1010.3 hPa | 0 mm | - | - | - |
| 1788150342 | 35.56° C | 72% | 1010.4 hPa | 0 mm | - | - | - |
| 1788149742 | 35.56° C | 73% | 1010.5 hPa | 0 mm | - | - | - |
| 1788149141 | 36.11° C | 71% | 1010.5 hPa | 0 mm | - | - | - |
| 1788148541 | 36.11° C | 74% | 1010.5 hPa | 0 mm | - | - | - |
| 1788147953 | 36.11° C | 74% | 1010.7 hPa | 0 mm | - | - | - |
| 1788147340 | 35.56° C | 74% | 1010.8 hPa | 0 mm | - | - | - |
| 1788146740 | 34.44° C | 78% | 1010.9 hPa | 0 mm | - | - | - |
| 1788146139 | 32.22° C | 87% | 1011 hPa | 0 mm | - | - | - |
* Rain since midnight (hover to see other rain measurements)
** Current wind speed in m/s (hover to see current wind gust speed)